STARLINK-32891, 62927

Orbit data source: Space-Track

STARLINK-32891, 62927 is a payload satellite owned by SpaceX/Seattle (US) in LEO that was launched on Sat, 08 Feb 2025 UTC via an FALCON 9 launch vehicle from the Air Force Eastern Test Range (AFETR). Payload-class satellites include a variety of spacecraft equipped with specific instruments for various scientific and technological missions. These include communications satellites like Starlink; space stations such as the ISS; scientific satellites like the Hubble; Earth observation satellites from companies like Planet Labs, Umbra, and HawkEye 360; GPS; miniature CubeSats for education and research; and military/defense satellites.

Loading next visibility...
Identifier
62927, 2025-027W
Orbit
LEO
Last TLE update
14 hours ago
Origin
Manufacturer
SpaceX/Seattle
Mission
Operational Commercial Communications
Bus & Motor
STARLINK V2M, Unknown motor
Mass
730 kg wet, ~700 kg dry
Launch date (UTC)
2025-02-08 (5 months ago)
Launch vehicle
FALCON 9
Launch site
Air Force Eastern Test Range (AFETR)
Object type
Payload
Rocket body
Debris
Shape & HBR
Box + 2 Pan, 29 m
Radar Cross Section
33.884 m², Large (>1 m²)

Expand to show TLE details & history

TLE from 14 hours ago
0 STARLINK-32891
1 62927U 25027W   25189.04057692  .00014776  00000-0  54531-3 0  9996
2 62927  43.0003  70.7547 0001659 265.3043  94.7619 15.27585648 24094
Epoch: 2025-07-08T00:58Z
TLE epoch observation values (Epoch: 2025-07-08T00:58:25.845Z)
Latitude
-0.00005°
Longitude
129.90569°
Altitude
482.902 km
Speed
7.626 km/s
True Right ascension
04h 43m 01s
True Declination
0° 00' 00"
Sunlit
Object was in daylight at epoch
Visualization orbit readout
Latitude
18.40451°
Longitude
147.33681°
Altitude
482.747 km
Speed
7.627 km/s
Apparent Right ascension
09h 07m 30s
Apparent Declination
-25° 24' 56"
Sunlit
Object is in daylight
Visualization observer readout
Local Sidereal Time
03:19:49
Azimuth
111.776° ESE
Elevation
-13.779°
Doppler factor
1
Orbital elements
Apogee altitude
486.116 km
Perigee altitude
483.839 km
Semi-major axis
6,863.114 km
Eccentricity
0.00017
Inclination
43.0003°
RAAN
70.7547°
Arg. of periapsis
265.3043°
True anomaly
Unknown
Mean anomaly
94.7619°
Eccentric anomaly
Unknown
Mean motion
3.81734 °/min
Orbital period
94.31 mins
BSTAR
0.00054531
Loading maneuver chart data...
Loading SW <> Apogee altitude chart data...
Loading historical data...
Loading historical data...
Loading historical data...
Loading historical data...
Loading historical data...
Loading historical data...
Loading historical data...

STARLINK-32891 Visibility forecast

Observer location: undefined°, undefined°

Span
Click to sort rows by Start time (UTC) header in descending order
Start Az.
Max El. time (UTC)
Max El. Az.
Max El.
End time (UTC)
End Az.
4 mins2025-07-08 18:24:59.808Z173.999° S2025-07-08 18:26:59.808Z139.736° SSE14.563°2025-07-08 18:28:59.808Z106.861° ESE
6 mins2025-07-08 20:02:59.808Z235.645° WSW2025-07-08 20:04:59.808Z194.838° SSW41.381°2025-07-08 20:08:59.808Z74.781° E
6 mins2025-07-08 21:41:59.808Z282.078° WNW2025-07-08 21:43:59.808Z327.32° NNW37.733°2025-07-08 21:47:59.808Z72.842° E
6 mins2025-07-08 23:20:59.808Z292.434° WNW2025-07-08 23:23:59.808Z51.022° ENE41.026°2025-07-08 23:26:59.808Z94.972° ESE
5 mins2025-07-09 00:59:59.808Z270.932° WNW2025-07-09 01:01:59.808Z228.687° WSW30.94°2025-07-09 01:04:59.808Z146.533° SSE
|